Regional Weather Roundup
Issued by NWS

Home | Current Version | Previous Version | Graphics & Text | Print | Product List | Glossary Off
Versions: 1 2 3 4 5 6 7 8 9 10 11 12 13 14 15 16 17 18 19 20 21 22 23 24 25 26 27 28 29 30 31 32 33 34 35 36 37 38 39 40 41 42 43 44 45 46 47 48 49 50

000
ASUS43 KDMX 262207
RWRIA

WEATHER ROUNDUP FOR IOWA
NATIONAL WEATHER SERVICE DES MOINES IA
500 PM CDT TUE MAY 26 2015

NOTE: "FAIR" INDICATES FEW OR NO CLOUDS BELOW 12,000 FEET WITH NO
SIGNIFICANT WEATHER AND/OR OBSTRUCTIONS TO VISIBILITY.

* - THESE STATIONS ARE NOT NWS STATIONS...THUS NOT UNDER NWS
QUALITY CONTROL.  THEY ALSO DO NOT REPORT WEATHER SUCH
AS PRECIPITATION OR FOG.

IAZ001>003-012>014-020>022-031>034-043>046-262300-
   NORTHWEST IOWA

CITY           SKY/WX    TMP DP  RH WIND       PRES   REMARKS
CARROLL *      RAIN      63  61  94 W12       29.81S
CHEROKEE *     CLOUDY    61  59  94 NW6       29.83S
DENISON *      CLOUDY    64  63  94 NW12      29.82R
LE MARS *      CLOUDY    63  55  77 NW7       29.85S
ORANGE CITY *  CLOUDY    57  54  88 N7        29.84S
SHELDON *      CLOUDY    59  43  55 N10       29.83R
SIOUX CITY     PTSUNNY   67  55  65 N12       29.84R
SPENCER        CLOUDY    60  57  89 NW10      29.82R
STORM LAKE *   CLOUDY    59  57  94 NW13      29.83S
$$

IAZ055>058-069>071-079>083-090>094-262300-
   SOUTHWEST IOWA

CITY           SKY/WX    TMP DP  RH WIND       PRES   REMARKS
ATLANTIC *     RAIN      64  64 100 W15       29.82F
AUDUBON *      MOSUNNY   68  63  83 W8        29.83R
COUNCIL BLFS * CLOUDY    64  64 100 NW14G21   29.86R
CRESTON *      CLOUDY    68  63  83 W13       29.81S
HARLAN  *      PTSUNNY   66  66 100 NW20      29.87R FOG
LAMONI         MOSUNNY   75  62  64 W14       29.81S
RED OAK *      PTSUNNY   68  63  83 W14G22    29.84R
SHENANDOAH *   MOSUNNY   72  63  73 NW15      29.85S
$$

IAZ047>049-059>061-072>074-084-262300-
   CENTRAL IOWA

CITY           SKY/WX    TMP DP  RH WIND       PRES   REMARKS
AMES           PTSUNNY   70  60  70 W10       29.78F
ANKENY *       PTSUNNY   66  63  88 S5G14     29.79S
CHARITON *     MOSUNNY   70  63  78 SW10      29.80S
DES MOINES     LGT RAIN  67  63  87 W8        29.79S
GRINNELL*      PTSUNNY   70  61  73 SW8       29.79F
KNOXVILLE *    PTSUNNY   72  63  73 SW9G17    29.78S
MARSHALLTOWN   MOSUNNY   70  61  73 W13       29.77F
PELLA *        MOSUNNY   70  66  88 SW5       29.81S
PERRY *          N/A     70  61  73 W9        29.79S
$$

IAZ004>006-015-016-023>025-035-036-262300-
   NORTH CENTRAL IOWA

CITY           SKY/WX    TMP DP  RH WIND       PRES   REMARKS
ALGONA *       PTSUNNY   63  61  94 NW9       29.80S
CLARION *      PTSUNNY   66 N/A N/A W8        29.79S
ESTHERVILLE    LGT RAIN  58  56  93 N12       29.81R
FORT DODGE *   PTSUNNY   66  59  77 W5        29.79F
MASON CITY     LGT RAIN  64  59  83 W14       29.79R
FOREST CITY *  LGT RAIN  61  59  94 W8        29.78S
IOWA FALLS *   PTSUNNY   68  59  73 W16       29.79S
$$

IAZ007>011-017>019-026>030-037>042-050>054-066-262300-
   NORTHEAST IOWA

CITY           SKY/WX    TMP DP  RH WIND       PRES   REMARKS
CEDAR RAPIDS   PTSUNNY   70  61  73 W18       29.77S
CHARLES CITY * LGT RAIN  63  63 100 W9G15     29.76S
CLINTON *      CLOUDY    72  59  64 W26G37    29.78S
DECORAH *      CLOUDY    63  61  94 W9G21     29.72R
DUBUQUE        PTSUNNY   66  60  81 W24G32    29.73R
MONTICELLO *   CLOUDY    68  63  83 W17G23    29.76R
OELWEIN *      PTSUNNY   64  61  88 W16G22    29.76S
WATERLOO       CLOUDY    66  61  84 W6        29.76S
$$

IAZ064-065-067-068-078-262300-
   EAST CENTRAL IOWA

CITY           SKY/WX    TMP DP  RH WIND       PRES   REMARKS
DAVENPORT      MOSUNNY   73  59  61 W29G37    29.79R
IOWA CITY      MOSUNNY   73  60  63 W20G25    29.80R
MT. PLEASANT * PTSUNNY   73  61  64 SW16      29.81F
MUSCATINE *    PTSUNNY   75  61  60 W18       29.80S
QUAD CITIES    LGT RAIN  75  59  57 W23G29    29.78R
$$

IAZ062-063-075>077-085>089-095>099-262300-
   SOUTHEAST IOWA

CITY           SKY/WX    TMP DP  RH WIND       PRES   REMARKS
BURLINGTON     PTSUNNY   75  63  66 SW9       29.82S
FAIRFIELD *    MOSUNNY   73  61  64 SW14      29.80F
FORT MADISON * PTSUNNY   73  63  68 SW12G17   29.83S
KEOKUK *       PTSUNNY   73  61  64 SW12G18   29.82S
OSKALOOSA *    PTSUNNY   72  63  73 SW10      29.80F
CENTERVILLE *  LGT RAIN  68  68 100 SW7       29.83S
OTTUMWA        RAIN      69  62  78 SW10      29.80S
WASHINGTON *   CLOUDY    72  61  68 SW18G26   29.82R
$$

ABBREVIATIONS USED IN REMARKS
   TC - TEMPERATURES IN CELSIUS
  WCI - WIND CHILL INDEX
   HX - HEAT INDEX
  VSB - VISIBILITY
$$



USA.gov is the U.S. government's official web portal to all federal, state and local government web resources and services.